Time,TemperatureF,DewpointF,PressureIn,WindDirection,WindDirectionDegrees,WindSpeedMPH,WindSpeedGustMPH,Humidity,HourlyPrecipIn,Conditions,Clouds,dailyrainin,SolarRadiationWatts/m^2,SoftwareType,DateUTC
2013-10-18 00:03:00,46.0,46.0,-100.00,ESE,103,0.0,0.0,99,0.00,,,0.20,0.000000,,2013-10-18 05:03:00,
2013-10-18 00:43:00,45.0,45.0,-100.00,SE,126,0.0,2.0,99,0.00,,,0.20,0.000000,,2013-10-18 05:43:00,
2013-10-18 00:52:00,45.0,45.0,-100.00,SE,126,0.0,2.0,99,0.00,,,0.20,0.000000,,2013-10-18 05:52:00,
2013-10-18 01:02:00,45.0,45.0,-100.00,SE,126,0.0,2.0,99,0.00,,,0.20,0.000000,,2013-10-18 06:02:00,
2013-10-18 01:42:00,44.0,44.0,-100.00,SE,124,0.0,0.0,99,0.00,,,0.20,0.000000,,2013-10-18 06:42:00,
2013-10-18 01:52:00,44.0,44.0,-100.00,SE,124,0.0,0.0,99,0.00,,,0.20,0.000000,,2013-10-18 06:52:00,
2013-10-18 02:02:00,44.0,44.0,-100.00,SE,124,0.0,0.0,99,0.00,,,0.20,0.000000,,2013-10-18 07:02:00,
2013-10-18 02:42:00,44.0,44.0,-100.00,SE,125,0.0,0.0,100,0.00,,,0.20,0.000000,,2013-10-18 07:42:00,
2013-10-18 02:52:00,44.0,44.0,-100.00,SE,125,0.0,0.0,100,0.00,,,0.20,0.000000,,2013-10-18 07:52:00,
2013-10-18 03:02:00,44.0,44.0,-100.00,SE,125,0.0,0.0,100,0.00,,,0.20,0.000000,,2013-10-18 08:02:00,
2013-10-18 03:42:00,43.0,43.0,-100.00,SE,133,0.0,0.0,100,0.00,,,0.20,0.000000,,2013-10-18 08:42:00,
2013-10-18 03:52:00,43.0,43.0,-100.00,SE,133,0.0,0.0,100,0.00,,,0.20,0.000000,,2013-10-18 08:52:00,
2013-10-18 04:02:00,43.0,43.0,-100.00,SE,133,0.0,0.0,100,0.00,,,0.20,0.000000,,2013-10-18 09:02:00,
2013-10-18 04:43:00,42.0,42.0,-100.00,East,94,0.0,0.0,99,0.00,,,0.20,0.000000,,2013-10-18 09:43:00,
2013-10-18 04:53:00,42.0,42.0,-100.00,East,94,0.0,0.0,99,0.00,,,0.20,0.000000,,2013-10-18 09:53:00,
2013-10-18 05:03:00,42.0,42.0,-100.00,East,94,0.0,0.0,99,0.00,,,0.20,0.000000,,2013-10-18 10:03:00,
2013-10-18 05:43:00,41.0,41.0,-100.00,East,97,0.0,2.0,100,0.00,,,0.09,0.000000,,2013-10-18 10:43:00,
2013-10-18 05:53:00,41.0,41.0,-100.00,East,97,0.0,2.0,100,0.00,,,0.09,0.000000,,2013-10-18 10:53:00,
2013-10-18 06:03:00,41.0,41.0,-100.00,East,97,0.0,2.0,100,0.00,,,0.09,0.000000,,2013-10-18 11:03:00,
2013-10-18 06:42:00,40.0,40.0,-100.00,ENE,75,0.0,0.0,100,0.00,,,0.01,0.000000,,2013-10-18 11:42:00,
2013-10-18 06:52:00,40.0,40.0,-100.00,ENE,75,0.0,0.0,100,0.00,,,0.01,0.000000,,2013-10-18 11:52:00,
2013-10-18 07:02:00,40.0,40.0,-100.00,ENE,75,0.0,0.0,100,0.00,,,0.01,0.000000,,2013-10-18 12:02:00,
2013-10-18 07:42:00,40.0,40.0,-100.00,NE,36,0.0,2.0,100,0.00,,,0.00,0.000000,,2013-10-18 12:42:00,
2013-10-18 07:52:00,40.0,40.0,-100.00,NE,36,0.0,2.0,100,0.00,,,0.00,0.000000,,2013-10-18 12:52:00,
2013-10-18 08:01:00,40.0,40.0,-100.00,NE,36,0.0,2.0,100,0.00,,,0.00,0.000000,,2013-10-18 13:01:00,
2013-10-18 08:42:00,40.0,40.0,-100.00,SE,135,0.0,4.0,99,0.00,,,0.00,25.000000,,2013-10-18 13:42:00,
2013-10-18 08:52:00,40.0,40.0,-100.00,SE,135,0.0,4.0,99,0.00,,,0.00,25.000000,,2013-10-18 13:52:00,
2013-10-18 09:02:00,40.0,40.0,-100.00,SE,135,0.0,4.0,99,0.00,,,0.00,25.000000,,2013-10-18 14:02:00,
2013-10-18 09:42:00,49.0,49.0,-100.00,NW,326,0.0,3.0,100,0.00,,,0.00,110.000000,,2013-10-18 14:42:00,
2013-10-18 09:52:00,49.0,49.0,-100.00,NW,326,0.0,3.0,100,0.00,,,0.00,110.000000,,2013-10-18 14:52:00,
2013-10-18 10:02:00,49.0,49.0,-100.00,NW,326,0.0,3.0,100,0.00,,,0.00,110.000000,,2013-10-18 15:02:00,
2013-10-18 10:43:00,58.0,53.0,-100.00,WSW,249,2.0,4.0,82,0.00,,,0.00,415.000000,,2013-10-18 15:43:00,
2013-10-18 10:54:00,58.0,53.0,-100.00,WSW,249,2.0,4.0,82,0.00,,,0.00,415.000000,,2013-10-18 15:54:00,
2013-10-18 11:04:00,58.0,53.0,-100.00,WSW,249,2.0,4.0,82,0.00,,,0.00,415.000000,,2013-10-18 16:04:00,
2013-10-18 11:42:00,63.0,50.0,-100.00,SW,230,5.0,9.0,62,0.00,,,0.00,605.000000,,2013-10-18 16:42:00,
2013-10-18 11:53:00,63.0,50.0,-100.00,SW,230,5.0,9.0,62,0.00,,,0.00,605.000000,,2013-10-18 16:53:00,
2013-10-18 12:03:00,63.0,50.0,-100.00,SW,230,5.0,9.0,62,0.00,,,0.00,605.000000,,2013-10-18 17:03:00,
2013-10-18 12:42:00,65.0,47.0,-100.00,WSW,251,6.0,13.0,52,0.00,,,0.00,720.000000,,2013-10-18 17:42:00,
2013-10-18 12:52:00,65.0,47.0,-100.00,WSW,251,6.0,13.0,52,0.00,,,0.00,720.000000,,2013-10-18 17:52:00,
2013-10-18 13:02:00,65.0,47.0,-100.00,WSW,251,6.0,13.0,52,0.00,,,0.00,720.000000,,2013-10-18 18:02:00,
2013-10-18 13:42:00,66.0,47.0,-100.00,WNW,282,6.0,11.0,51,0.00,,,0.00,704.000000,,2013-10-18 18:42:00,
2013-10-18 13:52:00,66.0,47.0,-100.00,WNW,282,6.0,11.0,51,0.00,,,0.00,704.000000,,2013-10-18 18:52:00,
2013-10-18 14:01:00,66.0,47.0,-100.00,WNW,282,6.0,11.0,51,0.00,,,0.00,704.000000,,2013-10-18 19:01:00,
2013-10-18 14:42:00,65.0,45.0,-100.00,WNW,289,5.0,11.0,48,0.00,,,0.00,624.000000,,2013-10-18 19:42:00,
2013-10-18 14:52:00,65.0,45.0,-100.00,WNW,289,5.0,11.0,48,0.00,,,0.00,624.000000,,2013-10-18 19:52:00,
2013-10-18 15:02:00,65.0,45.0,-100.00,WNW,289,5.0,11.0,48,0.00,,,0.00,624.000000,,2013-10-18 20:02:00,
2013-10-18 15:42:00,65.0,45.0,-100.00,WSW,253,4.0,11.0,48,0.00,,,0.00,478.000000,,2013-10-18 20:42:00,
2013-10-18 15:52:00,65.0,45.0,-100.00,WSW,253,4.0,11.0,48,0.00,,,0.00,478.000000,,2013-10-18 20:52:00,
2013-10-18 16:02:00,65.0,45.0,-100.00,WSW,253,4.0,11.0,48,0.00,,,0.00,478.000000,,2013-10-18 21:02:00,
2013-10-18 16:45:00,68.0,46.0,-100.00,West,272,5.0,8.0,46,0.00,,,0.00,346.000000,,2013-10-18 21:45:00,
2013-10-18 16:54:00,68.0,46.0,-100.00,West,272,5.0,8.0,46,0.00,,,0.00,346.000000,,2013-10-18 21:54:00,
2013-10-18 17:04:00,68.0,46.0,-100.00,West,272,5.0,8.0,46,0.00,,,0.00,346.000000,,2013-10-18 22:04:00,
2013-10-18 17:43:00,68.0,47.0,-100.00,SW,224,0.0,9.0,47,0.00,,,0.00,238.000000,,2013-10-18 22:43:00,
2013-10-18 17:54:00,68.0,47.0,-100.00,SW,224,0.0,9.0,47,0.00,,,0.00,238.000000,,2013-10-18 22:54:00,
2013-10-18 18:03:00,68.0,47.0,-100.00,SW,224,0.0,9.0,47,0.00,,,0.00,238.000000,,2013-10-18 23:03:00,
2013-10-18 18:43:00,61.0,50.0,-100.00,SE,140,0.0,4.0,66,0.00,,,0.00,76.000000,,2013-10-18 23:43:00,
2013-10-18 18:53:00,61.0,50.0,-100.00,SE,140,0.0,4.0,66,0.00,,,0.00,76.000000,,2013-10-18 23:53:00,
2013-10-18 19:02:00,61.0,50.0,-100.00,SE,140,0.0,4.0,66,0.00,,,0.00,76.000000,,2013-10-19 00:02:00,
2013-10-18 19:42:00,55.0,50.0,-100.00,North,351,0.0,2.0,84,0.00,,,0.00,1.000000,,2013-10-19 00:42:00,
2013-10-18 19:52:00,55.0,50.0,-100.00,North,351,0.0,2.0,84,0.00,,,0.00,1.000000,,2013-10-19 00:52:00,
2013-10-18 20:02:00,55.0,50.0,-100.00,North,351,0.0,2.0,84,0.00,,,0.00,1.000000,,2013-10-19 01:02:00,
2013-10-18 20:42:00,55.0,53.0,-100.00,West,278,0.0,2.0,92,0.00,,,0.00,0.000000,,2013-10-19 01:42:00,
2013-10-18 20:53:00,55.0,53.0,-100.00,West,278,0.0,2.0,92,0.00,,,0.00,0.000000,,2013-10-19 01:53:00,
2013-10-18 21:02:00,55.0,53.0,-100.00,West,278,0.0,2.0,92,0.00,,,0.00,0.000000,,2013-10-19 02:02:00,
2013-10-18 21:42:00,52.0,51.0,-100.00,North,11,2.0,4.0,95,0.00,,,0.00,0.000000,,2013-10-19 02:42:00,
2013-10-18 21:52:00,52.0,51.0,-100.00,North,11,2.0,4.0,95,0.00,,,0.00,0.000000,,2013-10-19 02:52:00,
2013-10-18 22:03:00,52.0,51.0,-100.00,North,11,2.0,4.0,95,0.00,,,0.00,0.000000,,2013-10-19 03:03:00,
2013-10-18 22:45:00,54.0,49.0,-100.00,North,10,2.0,4.0,84,0.00,,,0.00,0.000000,,2013-10-19 03:45:00,
2013-10-18 22:55:00,54.0,49.0,-100.00,North,10,2.0,4.0,84,0.00,,,0.00,0.000000,,2013-10-19 03:55:00,
2013-10-18 23:05:00,54.0,49.0,-100.00,North,10,2.0,4.0,84,0.00,,,0.00,0.000000,,2013-10-19 04:05:00,
2013-10-18 23:44:00,54.0,47.0,-100.00,NNE,17,2.0,6.0,77,0.00,,,0.00,0.000000,,2013-10-19 04:44:00,
2013-10-18 23:54:00,54.0,47.0,-100.00,NNE,17,2.0,6.0,77,0.00,,,0.00,0.000000,,2013-10-19 04:54:00,